IRNSS-1C

Last updated on Sat Aug 22 2026 00:02:58 GMT+0000 (Coordinated Universal Time)

1 40269U 14061A 26233.07267119 -.00000168 00000+0 00000+0 0 9996 2 40269 6.6776 87.6833 0020798 8.2756 342.5616 1.00274849 43339
UTC large
Height (km)
Speed (km/s)
/
Latitude / Longitude
Inclination (degrees)
Orbital Period (minutes)
Azimuth
Elevation
Range (km)
Doppler Factor

Next 0 passes for location: London (51.5072 / 0.1276)

No passes found over London.
IRNSS-1C